• en Belgique
  • Liste des pays
  • À 7 jours
  • Température de l'eau
  • Carte satellitaire
  • Carte météo
  • Widgets météo
  • user-avatar
    Se connecter

    Météo par heure à Armavir

    Ce jour, 22 Juillet, Dimanche

    Heure Température Précipitation Vent Pression Humidité
    00:00 +24°C° 0,2 mm 3 m/s 684 mmHg 68%
    01:00 +22°C° 0,2 mm 3 m/s 684 mmHg 70%
    02:00 +22°C° 0,2 mm 3 m/s 683 mmHg 72%
    03:00 +21°C° 0 mm 3 m/s 683 mmHg 73%
    04:00 +21°C° 0,4 mm 3 m/s 683 mmHg 73%
    05:00 +22°C° 0,4 mm 3 m/s 683 mmHg 72%
    06:00 +23°C° 0,4 mm 2 m/s 684 mmHg 72%
    07:00 +25°C° 0,1 mm 2 m/s 684 mmHg 65%
    08:00 +26°C° 0,1 mm 2 m/s 684 mmHg 58%
    09:00 +28°C° 0,1 mm 2 m/s 684 mmHg 51%
    10:00 +30°C° 0,2 mm 2 m/s 684 mmHg 46%
    11:00 +31°C° 0,2 mm 2 m/s 684 mmHg 41%
    12:00 +32°C° 0,2 mm 2 m/s 683 mmHg 36%
    13:00 +33°C° 0,3 mm 3 m/s 683 mmHg 35%
    14:00 +34°C° 0,3 mm 3 m/s 683 mmHg 34%
    15:00 +34°C° 0,3 mm 3 m/s 683 mmHg 33%
    16:00 +34°C° 0,4 mm 3 m/s 683 mmHg 35%
    17:00 +33°C° 0,4 mm 3 m/s 683 mmHg 37%
    18:00 +31°C° 0,4 mm 3 m/s 682 mmHg 39%
    19:00 +29°C° 0,4 mm 3 m/s 683 mmHg 46%
    20:00 +27°C° 0,4 mm 3 m/s 683 mmHg 53%
    21:00 +25°C° 0,4 mm 3 m/s 683 mmHg 60%
    22:00 +25°C° 0,3 mm 2 m/s 683 mmHg 64%
    23:00 +24°C° 0,3 mm 2 m/s 683 mmHg 67%

    Demain, 23 Juillet, Lundi

    Heure Température Précipitation Vent Pression Humidité
    00:00 +23°C° 0,3 mm 2 m/s 683 mmHg 70%
    01:00 +23°C° 0,2 mm 2 m/s 683 mmHg 73%
    02:00 +21°C° 0,2 mm 2 m/s 682 mmHg 75%
    03:00 +21°C° 0,2 mm 2 m/s 682 mmHg 77%
    04:00 +21°C° 0,1 mm 2 m/s 682 mmHg 75%
    05:00 +23°C° 0,1 mm 2 m/s 683 mmHg 74%
    06:00 +23°C° 0,1 mm 2 m/s 683 mmHg 73%
    07:00 +25°C° 0,1 mm 2 m/s 683 mmHg 65%
    08:00 +26°C° 0,1 mm 2 m/s 683 mmHg 57%
    09:00 +28°C° 0,1 mm 2 m/s 683 mmHg 50%
    10:00 +29°C° 0,5 mm 2 m/s 682 mmHg 45%
    11:00 +31°C° 0,5 mm 2 m/s 682 mmHg 41%
    12:00 +32°C° 0,5 mm 2 m/s 682 mmHg 36%
    13:00 +32°C° 0,3 mm 2 m/s 682 mmHg 35%
    14:00 +34°C° 0,3 mm 2 m/s 681 mmHg 35%
    15:00 +34°C° 0,3 mm 2 m/s 681 mmHg 34%
    16:00 +32°C° 0,8 mm 2 m/s 681 mmHg 38%
    17:00 +31°C° 0,8 mm 2 m/s 681 mmHg 41%
    18:00 +30°C° 0,8 mm 2 m/s 681 mmHg 45%
    19:00 +28°C° 0,5 mm 2 m/s 681 mmHg 50%
    20:00 +27°C° 0,5 mm 1 m/s 682 mmHg 55%
    21:00 +25°C° 0,5 mm 1 m/s 682 mmHg 61%
    22:00 +24°C° 0,4 mm 1 m/s 682 mmHg 63%
    23:00 +24°C° 0,4 mm 1 m/s 682 mmHg 65%

    Après-demain, 24 Juillet, Mardi

    Heure Température Précipitation Vent Pression Humidité
    00:00 +23°C° 0,4 mm 1 m/s 682 mmHg 67%
    01:00 +23°C° 0,3 mm 1 m/s 682 mmHg 69%
    02:00 +22°C° 0,3 mm 1 m/s 682 mmHg 70%
    03:00 +22°C° 0,3 mm 1 m/s 682 mmHg 72%
    04:00 +22°C° 0,1 mm 1 m/s 682 mmHg 71%
    05:00 +23°C° 0,1 mm 1 m/s 682 mmHg 70%
    06:00 +23°C° 0,1 mm 1 m/s 682 mmHg 69%
    07:00 +25°C° 0 mm 1 m/s 683 mmHg 60%
    08:00 +27°C° 0 mm 1 m/s 683 mmHg 52%
    09:00 +29°C° 0 mm 2 m/s 683 mmHg 43%
    10:00 +31°C° 0 mm 2 m/s 683 mmHg 39%
    11:00 +32°C° 0 mm 2 m/s 683 mmHg 34%
    12:00 +35°C° 0 mm 2 m/s 683 mmHg 30%
    13:00 +36°C° 0 mm 3 m/s 683 mmHg 28%
    14:00 +36°C° 0 mm 3 m/s 682 mmHg 26%
    15:00 +37°C° 0 mm 3 m/s 682 mmHg 25%
    16:00 +36°C° 0 mm 2 m/s 682 mmHg 26%
    17:00 +36°C° 0 mm 2 m/s 682 mmHg 28%
    18:00 +35°C° 0 mm 2 m/s 682 mmHg 29%
    19:00 +32°C° 0 mm 2 m/s 682 mmHg 34%
    20:00 +30°C° 0 mm 2 m/s 683 mmHg 39%
    21:00 +28°C° 0 mm 2 m/s 683 mmHg 44%
    22:00 +27°C° 0 mm 2 m/s 683 mmHg 48%
    23:00 +27°C° 0 mm 2 m/s 683 mmHg 52%

    25 Juillet, Mercredi

    Heure Température Précipitation Vent Pression Humidité
    00:00 +26°C° 0 mm 2 m/s 683 mmHg 56%
    01:00 +26°C° 0 mm 2 m/s 683 mmHg 58%
    02:00 +25°C° 0 mm 2 m/s 683 mmHg 59%
    03:00 +25°C° 0 mm 2 m/s 683 mmHg 60%
    04:00 +25°C° 0 mm 1 m/s 683 mmHg 59%
    05:00 +26°C° 0 mm 1 m/s 683 mmHg 58%
    06:00 +26°C° 0 mm 1 m/s 684 mmHg 57%
    07:00 +28°C° 0 mm 2 m/s 684 mmHg 49%
    08:00 +31°C° 0 mm 2 m/s 684 mmHg 41%
    09:00 +34°C° 0 mm 2 m/s 684 mmHg 32%
    10:00 +36°C° 0 mm 3 m/s 684 mmHg 29%
    11:00 +37°C° 0 mm 3 m/s 684 mmHg 26%
    12:00 +39°C° 0 mm 3 m/s 683 mmHg 23%
    13:00 +40°C° 0 mm 4 m/s 683 mmHg 21%
    14:00 +41°C° 0 mm 4 m/s 683 mmHg 20%
    15:00 +42°C° 0 mm 4 m/s 682 mmHg 19%
    16:00 +41°C° 0 mm 4 m/s 682 mmHg 22%
    17:00 +40°C° 0 mm 4 m/s 682 mmHg 24%
    18:00 +38°C° 0 mm 3 m/s 682 mmHg 26%
    19:00 +36°C° 0 mm 3 m/s 682 mmHg 33%
    20:00 +33°C° 0 mm 3 m/s 682 mmHg 40%
    21:00 +30°C° 0 mm 2 m/s 683 mmHg 47%
    22:00 +29°C° 0 mm 2 m/s 683 mmHg 50%
    23:00 +28°C° 0 mm 2 m/s 683 mmHg 53%

    26 Juillet, Jeudi

    Heure Température Précipitation Vent Pression Humidité
    00:00 +28°C° 0 mm 2 m/s 683 mmHg 56%
    01:00 +27°C° 0 mm 2 m/s 683 mmHg 58%
    02:00 +27°C° 0 mm 2 m/s 683 mmHg 59%
    03:00 +26°C° 0 mm 2 m/s 683 mmHg 60%
    04:00 +26°C° 0 mm 2 m/s 683 mmHg 60%
    05:00 +27°C° 0 mm 2 m/s 683 mmHg 59%
    06:00 +27°C° 0 mm 2 m/s 684 mmHg 59%
    07:00 +29°C° 0 mm 2 m/s 684 mmHg 52%
    08:00 +31°C° 0 mm 2 m/s 684 mmHg 45%
    09:00 +34°C° 0 mm 2 m/s 684 mmHg 37%
    10:00 +36°C° 0 mm 2 m/s 684 mmHg 34%
    11:00 +38°C° 0 mm 2 m/s 684 mmHg 30%
    12:00 +39°C° 0 mm 2 m/s 684 mmHg 26%
    13:00 +40°C° 0 mm 3 m/s 683 mmHg 24%
    14:00 +40°C° 0 mm 3 m/s 683 mmHg 23%
    15:00 +42°C° 0 mm 3 m/s 683 mmHg 21%
    16:00 +40°C° 0,1 mm 3 m/s 683 mmHg 25%
    17:00 +39°C° 0,1 mm 3 m/s 683 mmHg 28%
    18:00 +38°C° 0,1 mm 3 m/s 683 mmHg 31%
    19:00 +36°C° 0 mm 3 m/s 683 mmHg 39%
    20:00 +33°C° 0 mm 3 m/s 683 mmHg 47%
    21:00 +30°C° 0 mm 3 m/s 683 mmHg 55%
    22:00 +29°C° 0 mm 3 m/s 683 mmHg 58%
    23:00 +28°C° 0 mm 3 m/s 684 mmHg 60%

    27 Juillet, Vendredi

    Heure Température Précipitation Vent Pression Humidité
    00:00 +28°C° 0 mm 3 m/s 684 mmHg 62%
    01:00 +27°C° 0 mm 3 m/s 684 mmHg 63%
    02:00 +27°C° 0 mm 2 m/s 684 mmHg 64%
    03:00 +26°C° 0 mm 2 m/s 684 mmHg 65%
    04:00 +26°C° 0 mm 2 m/s 684 mmHg 64%
    05:00 +26°C° 0 mm 2 m/s 684 mmHg 63%
    06:00 +26°C° 0 mm 2 m/s 684 mmHg 61%
    07:00 +29°C° 0 mm 2 m/s 684 mmHg 55%
    08:00 +31°C° 0 mm 2 m/s 684 mmHg 48%
    09:00 +34°C° 0 mm 2 m/s 684 mmHg 41%
    10:00 +35°C° 0 mm 2 m/s 684 mmHg 37%
    11:00 +37°C° 0 mm 2 m/s 684 mmHg 33%
    12:00 +39°C° 0 mm 3 m/s 684 mmHg 30%
    13:00 +39°C° 0 mm 3 m/s 683 mmHg 29%
    14:00 +39°C° 0 mm 3 m/s 683 mmHg 28%
    15:00 +40°C° 0 mm 3 m/s 683 mmHg 27%
    16:00 +40°C° 0 mm 4 m/s 683 mmHg 30%
    17:00 +39°C° 0 mm 5 m/s 683 mmHg 34%
    18:00 +38°C° 0 mm 6 m/s 683 mmHg 37%
    19:00 +35°C° 0 mm 5 m/s 683 mmHg 41%
    20:00 +33°C° 0 mm 4 m/s 683 mmHg 45%
    21:00 +29°C° 0 mm 3 m/s 683 mmHg 49%
    22:00 +29°C° 0 mm 3 m/s 684 mmHg 50%
    23:00 +28°C° 0 mm 3 m/s 684 mmHg 50%
    Voir plus